Overview Statistics Trail Chart Weather Telemetry Raw packets
 

This is the latest recevied weather packets stored in our database for station/object IR9AK-10. If no packets are shown the sender has not sent any weather packets the latest 10 day(s).

<< 32 33 34 35 36 37 38 >>
Time Temp. Humidity Pressure Rain* Wind** Luminosity Snow
1788100102 47.22° C 23% 1057.5 hPa - - - -
1788099502 46.11° C 22% 1057.6 hPa - - - -
1788098902 46.11° C 22% 1057.5 hPa - - - -
1788098303 46.11° C 21% 1057.6 hPa - - - -
1788097703 45.56° C 20% 1057.6 hPa - - - -
1788097104 46.11° C 20% 1057.7 hPa - - - -
1788096504 46.11° C 21% 1057.8 hPa - - - -
1788095905 45.56° C 22% 1057.9 hPa - - - -
1788095306 45.56° C 22% 1057.8 hPa - - - -
1788094708 45.56° C 23% 1057.9 hPa - - - -
1788094109 45.56° C 23% 1058.1 hPa - - - -
1788093510 45.56° C 10% - - - - -
1788092910 46.11° C 22% 1058.1 hPa - - - -
1788092311 46.11° C 22% 1058.1 hPa - - - -
1788091712 46.11° C 23% 1058.1 hPa - - - -
1788091112 46.11° C 22% 1058.1 hPa - - - -
1788090514 46.11° C 22% 1058.2 hPa - - - -
1788089914 46.11° C 19% 1058.2 hPa - - - -
1788089315 45.56° C 21% 1058.2 hPa - - - -
1788088716 45.56° C 25% 1058.2 hPa - - - -
1788088118 45.56° C 25% 1058.2 hPa - - - -
1788087518 45° C 23% 1058.3 hPa - - - -
1788086919 45° C 23% 1058.5 hPa - - - -
1788086319 45° C 23% 1058.4 hPa - - - -
1788085720 44.44° C 26% 1058.5 hPa - - - -

* Rain since midnight (hover to see other rain measurements)
** Current wind speed in m/s (hover to see current wind gust speed)